Wind_Speed
8 8 8 7 6 5 4 4 4 4 4 6 8 10 12 11 10 9 9 8 8 8 6 6 7 7 7 8 8 9 9 9 9 10 11 11 12 13 13 14 14 14 14 14 14 14 14 14 14
10 10 10 9 7 6 6 6 6 6 6 7 9 12 13 12 10 9 9 9 8 7 7 7 7 8 8 8 9 9 10 10 11 11 12 12 13 14 14 15 15 15 15 15 15 15 15 15 15
11 11 11 10 9 8 8 8 7 7 7 8 9 12 13 11 9 9 10 10 9 8 8 9 9 9 9 10 9 10 11 11 12 12 13 13 14 15 15 16 16 16 16 16 16 16 16 17 17
12 12 12 12 10 10 10 10 9 8 9 9 11 12 13 12 12 12 11 10 9 9 9 10 11 11 11 11 11 11 12 12 13 13 14 14 15 15 16 16 17 17 17 17 17 17 17 18 18
12 12 12 12 11 11 11 11 10 9 10 12 12 13 14 14 13 12 12 11 10 10 11 12 12 12 13 13 13 13 13 14 14 14 15 15 15 16 16 16 17 17 18 18 18 18 19 19 19
12 12 12 11 11 12 13 11 11 10 11 13 12 13 14 14 13 13 12 12 11 11 13 13 14 14 14 14 14 14 14 15 15 15 16 16 16 16 16 17 17 18 18 18 19 19 19 19 19
11 11 12 12 12 13 13 12 12 12 11 12 13 14 14 14 14 14 13 12 13 13 13 14 14 14 14 15 14 15 15 15 16 16 16 17 17 17 18 18 18 19 19 19 19 19 19 20 20
12 12 12 12 13 12 12 13 13 13 12 13 13 14 14 15 15 15 15 14 14 14 14 14 14 14 14 15 15 14 15 16 16 17 18 18 19 19 19 19 20 20 20 20 20 20 20 20 21
12 12 12 12 13 13 13 13 12 12 13 14 15 15 15 15 15 15 15 15 15 15 15 15 15 15 16 16 16 16 16 17 18 18 19 20 20 20 20 20 20 21 21 21 21 21 21 21 21
10 10 11 12 13 14 14 13 13 14 13 14 15 15 15 15 16 17 17 16 15 14 15 15 16 17 17 17 16 17 17 18 19 20 20 21 22 22 21 21 21 21 22 21 22 22 22 23 23
9 9 8 11 12 13 14 14 14 14 14 14 15 16 17 16 16 17 17 16 15 14 15 16 17 18 18 18 18 17 18 19 20 20 21 21 22 22 22 22 22 23 23 23 23 23 24 24 25
7 7 7 8 10 12 13 12 13 13 14 14 15 15 16 15 16 16 17 17 15 14 15 16 17 19 19 19 19 20 20 20 20 21 22 22 22 23 23 23 23 23 23 23 24 25 25 25 26
6 5 6 6 8 10 11 12 12 13 14 14 15 16 15 15 15 15 16 16 16 15 16 17 18 19 20 20 21 21 21 21 22 22 23 23 23 24 24 23 23 24 24 24 25 25 25 26 26
4 4 4 5 7 9 10 11 12 12 13 13 15 15 15 15 15 16 16 16 17 16 17 17 18 19 19 20 20 20 21 22 22 23 24 23 24 24 24 24 24 25 26 26 26 26 27 27 27
4 4 4 5 7 9 9 10 11 12 12 12 12 13 13 14 15 16 17 17 17 17 18 18 19 20 19 20 20 20 21 22 23 24 24 23 23 24 24 25 25 24 25 26 26 27 27 27 27
4 4 4 5 7 9 11 10 11 12 13 13 12 12 13 14 15 16 17 18 18 19 19 19 20 20 20 20 20 21 21 22 23 24 24 23 23 24 24 24 25 25 25 26 26 26 27 27 27
2 3 4 5 7 9 10 10 11 12 12 13 13 12 13 14 15 16 17 18 19 20 20 19 19 21 21 22 22 23 24 24 24 24 24 23 23 24 24 25 25 25 26 26 26 26 26 27 28
2 3 4 5 7 9 9 9 10 11 12 12 12 12 13 14 14 15 17 18 20 21 20 19 19 21 22 23 24 25 25 24 24 24 24 24 24 24 24 24 24 25 26 26 26 27 27 27 27
4 4 5 4 7 8 9 10 11 12 13 14 13 13 14 15 15 16 17 18 19 20 19 19 19 20 21 23 24 25 25 25 24 24 24 24 24 25 25 25 26 26 26 26 27 28 28 27 27
4 5 6 6 6 8 10 11 13 14 14 14 13 14 14 15 16 17 17 18 19 20 19 20 19 21 22 23 24 25 25 25 25 24 24 25 25 25 25 25 26 26 27 27 28 28 27 26 26
5 7 7 8 8 8 9 10 11 13 14 13 14 15 15 15 15 16 18 18 19 19 20 21 20 21 23 24 24 24 25 25 25 25 25 25 25 26 27 26 26 27 27 27 27 26 26 25 25
4 6 7 8 10 9 10 11 12 14 14 14 14 14 15 14 16 18 19 19 20 20 21 21 21 21 21 22 22 23 24 24 24 25 25 25 26 26 26 26 26 26 26 26 25 25 24 24 25
6 7 7 8 9 9 10 12 13 14 15 15 13 14 15 15 17 18 19 20 21 21 22 21 21 21 21 21 22 24 24 23 24 24 25 25 25 25 25 25 25 25 24 24 24 24 24 23 24
8 8 8 8 9 10 11 13 13 13 15 15 15 16 17 17 18 18 19 20 21 21 21 21 22 22 22 22 23 23 23 23 23 24 23 24 24 25 24 24 23 23 23 23 22 22 22 22 24
10 10 10 10 10 10 12 13 14 14 15 15 16 17 17 18 18 18 19 20 20 20 21 21 22 22 23 23 23 23 23 23 23 23 22 23 23 23 23 22 22 23 23 22 22 22 21 21 23
10 10 11 11 12 12 13 14 14 14 15 16 17 18 19 20 19 18 19 19 20 20 21 20 22 23 23 23 23 23 23 23 23 22 22 22 22 23 22 22 21 21 21 22 22 22 23 24 24
10 11 11 12 13 13 14 14 15 15 16 17 18 19 20 19 19 19 19 18 20 20 21 22 22 22 22 22 23 23 22 22 21 21 22 22 22 22 22 22 21 21 21 21 22 23 24 25 25
11 12 12 13 14 16 15 15 16 16 17 18 19 20 20 20 20 19 19 20 20 21 22 23 22 22 22 22 22 21 21 21 21 21 22 22 22 22 21 21 21 21 21 21 22 23 23 24 24
11 12 12 13 14 15 15 14 15 17 18 18 19 20 20 20 20 20 21 21 21 22 23 23 23 22 22 21 21 21 20 20 21 22 22 21 21 21 20 20 21 21 21 21 22 22 23 24 24
11 12 12 13 15 15 15 16 15 16 18 18 20 20 20 20 21 21 21 21 21 22 22 22 22 22 21 21 20 20 20 21 21 21 20 20 20 21 20 21 21 21 21 22 22 23 23 23 23
Wind_Direction
220 221 220 217 204 196 187 204 236 245 255 282 289 292 294 295 305 305 307 305 308 310 316 315 308 304 305 311 311 308 307 302 301 300 297 296 296 295 293 290 289 288 285 283 281 281 279 278 277
223 226 222 217 209 201 202 222 238 251 262 275 286 289 296 296 298 307 308 306 307 311 313 309 304 303 302 303 305 304 304 303 300 300 300 296 296 294 293 290 288 287 284 282 281 281 280 279 278
224 224 221 217 208 208 215 226 235 253 273 280 286 290 295 302 299 301 304 300 300 303 306 304 301 300 301 299 299 299 301 301 301 297 299 299 296 297 295 291 287 285 282 281 280 281 280 279 280
228 226 225 219 207 207 217 225 239 251 271 281 286 291 294 302 304 305 306 304 303 303 301 298 298 297 294 294 294 295 297 297 297 294 294 297 297 296 295 291 287 284 283 281 281 281 281 279 279
232 231 229 222 214 208 217 226 240 250 267 275 284 288 292 295 297 303 302 298 299 298 299 298 299 296 293 293 292 291 292 290 291 292 293 294 295 295 294 293 290 287 284 283 282 282 281 280 280
230 233 229 223 214 215 218 228 242 257 267 278 284 287 289 292 296 299 298 294 294 295 297 296 296 296 292 292 290 290 289 287 288 290 292 291 292 292 293 294 291 288 287 286 286 284 282 280 279
228 231 226 224 217 219 223 233 246 258 268 273 276 282 286 291 294 296 296 293 292 292 293 295 297 296 293 292 293 292 290 288 288 289 289 290 291 292 292 292 290 288 287 285 285 283 282 280 280
231 232 228 225 223 224 227 235 246 258 268 273 276 282 284 289 294 295 295 296 294 292 292 291 294 294 290 290 292 291 289 290 290 289 288 289 289 289 291 289 287 287 286 284 282 281 281 282 282
229 232 228 227 227 230 233 235 246 259 268 272 273 280 284 290 293 291 291 293 293 289 288 288 290 291 291 290 290 288 287 289 289 289 290 289 287 286 289 287 285 286 286 283 281 281 280 281 281
230 230 232 232 231 235 238 244 253 263 272 277 280 284 285 289 292 289 288 291 291 288 288 288 289 291 291 290 289 286 285 288 289 289 289 288 287 285 287 286 285 285 284 282 280 280 281 281 281
238 236 235 240 239 237 242 253 266 269 275 278 283 284 286 286 285 286 289 287 284 286 287 287 287 289 289 289 287 288 288 290 291 291 290 290 288 285 285 284 283 283 283 284 283 280 280 280 280
240 231 230 240 242 244 251 262 270 271 274 279 283 284 282 284 285 283 285 283 283 285 284 284 285 285 287 288 287 288 290 291 291 291 290 290 289 287 285 283 283 283 283 284 286 282 280 281 281
234 241 240 248 251 264 265 267 269 273 278 282 284 285 282 283 286 289 291 287 283 284 283 286 287 286 286 288 288 289 291 291 291 291 290 291 290 288 286 283 283 283 283 284 283 284 283 282 280
232 233 240 261 257 268 276 275 272 273 277 286 289 290 286 287 291 296 294 294 289 288 287 285 286 286 288 291 290 291 293 294 295 294 293 291 290 287 285 281 283 282 282 283 284 283 283 282 281
233 241 243 267 266 274 280 278 276 274 282 290 295 294 293 291 296 299 297 296 291 291 292 288 287 288 290 292 293 295 294 294 297 298 296 293 292 292 290 286 284 284 284 284 283 283 282 280 280
240 251 260 275 278 280 280 280 282 280 287 291 295 298 301 296 298 299 299 298 295 295 294 290 289 287 289 291 293 296 295 293 294 294 295 295 295 294 294 291 289 288 290 290 288 287 283 280 279
265 295 280 276 278 279 285 284 282 288 290 296 303 302 301 297 299 299 300 301 302 302 298 294 294 292 292 293 294 296 297 295 294 292 294 295 298 298 296 293 291 290 290 291 291 291 286 281 279
305 307 304 288 287 288 287 286 288 292 298 298 303 302 299 298 301 301 303 303 303 302 300 297 296 295 296 297 297 296 296 296 296 295 295 295 297 299 298 294 291 290 291 292 293 293 289 283 280
297 308 315 306 297 296 294 294 292 294 295 296 295 302 306 308 308 308 308 308 304 303 299 297 298 300 297 297 299 298 298 296 298 296 296 297 297 297 297 296 294 292 291 293 294 293 290 285 282
306 319 316 310 300 298 298 297 295 299 296 298 297 300 305 309 312 311 311 311 308 305 301 301 300 299 298 298 298 298 298 298 297 298 297 297 297 297 297 296 295 294 293 293 293 292 290 288 284
325 332 326 312 308 305 302 301 296 295 299 298 298 297 300 304 310 312 314 313 309 307 305 306 304 300 299 299 299 299 298 297 296 296 297 296 295 296 295 295 295 295 295 294 293 292 290 287 283
336 321 314 307 305 307 310 313 309 305 306 302 300 299 297 303 310 311 314 313 311 312 311 309 306 303 302 301 302 303 300 298 297 296 296 298 298 297 296 296 296 297 298 297 294 293 292 288 284
323 316 306 302 295 298 306 313 318 314 314 309 306 305 304 307 310 312 317 317 315 312 312 310 309 307 305 304 303 303 302 299 298 297 299 300 300 299 300 297 296 295 296 297 295 295 295 291 287
316 313 307 307 304 306 307 308 313 319 319 315 310 311 314 314 312 314 316 316 314 312 311 309 308 308 306 306 305 304 302 301 300 300 301 301 301 301 300 296 296 296 297 298 298 299 297 292 289
306 308 305 308 309 310 311 311 314 318 320 317 318 319 317 316 314 315 317 314 314 311 309 309 309 309 307 306 305 305 304 304 304 302 303 303 303 302 300 297 296 297 298 299 298 297 298 295 293
306 304 308 308 311 308 308 311 315 315 319 317 318 319 318 316 315 312 314 314 315 313 313 313 312 311 309 309 308 306 305 304 305 304 304 305 305 303 302 298 298 298 299 299 298 298 299 296 294
304 300 303 307 313 315 310 307 310 314 319 321 321 321 320 319 319 313 313 314 314 314 314 314 315 313 311 311 309 307 307 307 308 307 307 307 307 306 303 300 301 300 300 301 299 299 299 299 297
300 299 303 306 311 313 309 307 310 312 318 322 323 322 320 320 319 319 316 315 315 313 312 312 312 311 310 308 308 308 308 308 309 309 308 308 307 307 305 304 302 302 301 302 302 301 301 300 299
299 297 299 304 309 312 313 315 317 314 318 321 324 325 322 321 321 319 318 315 313 313 312 312 313 312 310 309 309 308 309 309 309 310 310 311 310 310 307 306 306 305 303 303 305 306 304 302 301
297 296 298 301 305 310 315 318 320 317 318 320 323 326 326 323 323 321 318 316 315 315 315 314 315 315 313 313 312 312 312 312 310 310 311 313 314 312 310 307 306 305 304 305 306 307 307 305 303
Height
5893 5893 5895 5896 5898 5898 5897 5898 5897 5896 5896 5897 5897 5897 5896 5897 5898 5900 5897 5895 5895 5894 5894 5894 5893 5893 5893 5892 5892 5892 5891 5890 5890 5889 5888 5888 5887 5886 5885 5884 5883 5882 5881 5880 5879 5878 5878 5877 5876
5891 5892 5894 5895 5896 5896 5896 5895 5895 5895 5895 5895 5895 5896 5894 5894 5895 5896 5894 5894 5893 5893 5893 5893 5892 5892 5891 5891 5891 5890 5889 5889 5888 5888 5887 5886 5885 5884 5883 5882 5880 5879 5878 5878 5877 5876 5875 5874 5873
5889 5890 5892 5893 5893 5894 5894 5894 5893 5893 5894 5894 5894 5894 5893 5893 5893 5893 5893 5892 5892 5891 5891 5891 5891 5890 5890 5889 5889 5888 5888 5887 5886 5886 5885 5884 5883 5882 5880 5879 5878 5877 5876 5875 5874 5873 5872 5871 5870
5887 5889 5890 5891 5891 5891 5891 5891 5891 5891 5892 5892 5892 5892 5892 5891 5891 5891 5891 5891 5890 5890 5890 5890 5889 5889 5888 5888 5887 5886 5886 5885 5884 5884 5883 5882 5880 5879 5878 5876 5875 5874 5873 5872 5871 5870 5869 5868 5867
5885 5886 5887 5887 5888 5888 5888 5888 5889 5889 5890 5890 5890 5889 5889 5890 5889 5889 5889 5889 5889 5888 5888 5888 5887 5887 5886 5885 5884 5884 5883 5883 5882 5881 5880 5879 5878 5876 5875 5873 5872 5871 5870 5869 5868 5867 5866 5864 5863
5883 5884 5884 5884 5885 5885 5885 5886 5887 5887 5888 5888 5888 5887 5886 5887 5886 5887 5887 5887 5886 5886 5886 5885 5885 5884 5883 5882 5882 5881 5880 5880 5879 5878 5877 5876 5874 5873 5872 5870 5869 5868 5866 5865 5864 5863 5862 5861 5859
5881 5881 5881 5882 5882 5883 5883 5883 5884 5884 5885 5885 5885 5884 5884 5883 5883 5884 5884 5884 5884 5884 5884 5883 5882 5881 5880 5879 5878 5877 5877 5876 5875 5874 5873 5872 5871 5869 5868 5866 5865 5864 5862 5861 5860 5859 5858 5856 5855
5877 5879 5879 5879 5879 5880 5881 5881 5881 5881 5881 5882 5882 5882 5882 5882 5881 5881 5881 5881 5881 5881 5881 5880 5879 5878 5877 5877 5875 5874 5873 5872 5872 5870 5869 5868 5867 5865 5864 5862 5861 5859 5858 5857 5855 5854 5853 5852 5850
5875 5877 5876 5876 5877 5878 5878 5878 5879 5879 5879 5880 5880 5880 5880 5881 5880 5879 5879 5879 5878 5878 5877 5876 5876 5875 5874 5873 5872 5871 5870 5868 5867 5866 5865 5864 5862 5861 5859 5858 5856 5855 5854 5852 5851 5849 5848 5847 5845
5872 5874 5874 5874 5874 5875 5875 5875 5876 5877 5878 5879 5879 5878 5877 5877 5877 5876 5875 5875 5875 5874 5874 5873 5872 5872 5871 5869 5868 5867 5865 5864 5863 5862 5860 5859 5857 5856 5854 5853 5851 5850 5848 5847 5846 5844 5843 5841 5840
5870 5871 5872 5872 5872 5873 5873 5874 5874 5875 5875 5876 5876 5876 5875 5875 5874 5873 5872 5872 5872 5871 5870 5869 5868 5867 5866 5865 5864 5862 5861 5860 5859 5857 5855 5853 5852 5850 5849 5847 5846 5845 5843 5842 5840 5839 5837 5836 5834
5869 5869 5870 5870 5871 5871 5871 5871 5872 5872 5873 5873 5873 5873 5872 5872 5871 5870 5869 5868 5868 5867 5866 5865 5864 5863 5861 5860 5859 5858 5857 5856 5854 5852 5850 5848 5846 5844 5843 5841 5840 5839 5837 5836 5834 5833 5831 5830 5828
5867 5869 5868 5868 5869 5868 5868 5868 5868 5869 5869 5870 5870 5870 5869 5869 5867 5866 5866 5865 5864 5863 5863 5861 5860 5858 5856 5855 5855 5853 5852 5850 5849 5847 5845 5842 5840 5839 5837 5836 5834 5833 5831 5830 5828 5827 5825 5824 5822
5866 5866 5867 5867 5866 5866 5865 5865 5866 5867 5866 5867 5867 5867 5866 5866 5865 5863 5862 5861 5860 5859 5858 5856 5854 5853 5851 5850 5849 5848 5846 5845 5843 5841 5839 5837 5835 5833 5831 5830 5828 5827 5825 5823 5821 5819 5818 5816 5815
5865 5865 5866 5865 5865 5864 5864 5864 5865 5864 5864 5865 5865 5864 5863 5862 5861 5860 5859 5857 5856 5855 5853 5851 5850 5849 5847 5845 5844 5843 5841 5840 5838 5836 5833 5832 5829 5827 5825 5823 5821 5820 5818 5816 5814 5812 5810 5809 5807
5864 5864 5864 5864 5863 5862 5864 5863 5862 5862 5862 5862 5862 5861 5860 5858 5857 5856 5855 5853 5851 5850 5848 5846 5845 5844 5842 5841 5839 5837 5836 5834 5833 5831 5828 5826 5823 5821 5819 5817 5815 5813 5811 5809 5807 5805 5803 5801 5800
5863 5863 5863 5863 5862 5861 5861 5861 5861 5860 5860 5859 5858 5857 5856 5855 5854 5852 5851 5848 5846 5844 5842 5841 5839 5838 5837 5836 5834 5832 5830 5829 5827 5824 5822 5820 5818 5815 5813 5811 5809 5807 5805 5802 5800 5797 5795 5794 5792
5863 5862 5862 5862 5861 5860 5859 5859 5859 5858 5857 5856 5855 5854 5852 5851 5850 5848 5847 5845 5842 5839 5837 5836 5834 5833 5832 5831 5829 5827 5825 5822 5820 5818 5816 5814 5812 5809 5807 5804 5802 5800 5798 5795 5793 5790 5788 5786 5784
5862 5861 5861 5861 5860 5859 5857 5857 5856 5855 5854 5853 5852 5851 5849 5847 5846 5844 5842 5840 5837 5835 5833 5831 5829 5828 5827 5825 5823 5821 5818 5816 5814 5812 5810 5808 5806 5803 5800 5798 5796 5794 5791 5788 5785 5783 5780 5779 5777
5860 5860 5860 5860 5858 5857 5856 5855 5854 5852 5851 5850 5849 5847 5846 5843 5841 5839 5837 5835 5832 5830 5828 5826 5824 5822 5821 5819 5817 5814 5812 5810 5808 5806 5804 5802 5799 5797 5794 5791 5789 5787 5784 5781 5778 5775 5773 5771 5769
5860 5859 5858 5858 5857 5856 5854 5853 5851 5849 5848 5847 5845 5844 5842 5839 5838 5835 5833 5831 5828 5825 5823 5821 5818 5816 5814 5812 5810 5807 5805 5803 5802 5800 5797 5795 5793 5790 5787 5784 5782 5779 5776 5773 5770 5767 5765 5763 5761
5859 5858 5857 5856 5855 5854 5853 5851 5850 5847 5846 5844 5842 5840 5838 5835 5834 5831 5829 5826 5823 5820 5818 5815 5812 5810 5808 5806 5803 5801 5799 5797 5795 5793 5790 5788 5785 5782 5780 5777 5774 5772 5769 5766 5763 5760 5758 5755 5754
5858 5857 5856 5855 5854 5853 5851 5849 5848 5845 5844 5841 5839 5837 5834 5832 5830 5827 5824 5821 5818 5815 5813 5810 5807 5805 5802 5800 5797 5795 5792 5790 5788 5785 5783 5780 5778 5775 5772 5770 5767 5765 5762 5759 5756 5753 5751 5748 5747
5856 5856 5855 5854 5852 5851 5849 5847 5846 5843 5841 5839 5836 5834 5831 5829 5826 5823 5820 5816 5813 5810 5807 5805 5802 5800 5797 5794 5791 5788 5786 5783 5781 5778 5775 5773 5771 5768 5765 5763 5760 5758 5755 5752 5750 5747 5744 5742 5740
5855 5855 5853 5851 5850 5849 5847 5845 5844 5841 5839 5836 5833 5831 5828 5826 5822 5819 5816 5813 5809 5806 5803 5800 5797 5794 5791 5788 5785 5782 5779 5776 5774 5771 5769 5767 5764 5761 5758 5756 5753 5751 5748 5746 5744 5742 5739 5736 5733
5853 5852 5851 5849 5847 5846 5844 5842 5841 5838 5835 5833 5830 5827 5825 5822 5819 5815 5812 5809 5805 5802 5798 5795 5792 5789 5785 5782 5779 5776 5772 5769 5767 5764 5762 5760 5758 5755 5752 5749 5747 5744 5742 5740 5738 5736 5733 5730 5727
5851 5849 5849 5847 5845 5843 5841 5840 5837 5834 5832 5830 5827 5824 5821 5819 5815 5812 5808 5805 5801 5797 5794 5790 5787 5784 5780 5777 5773 5770 5767 5764 5761 5759 5756 5754 5751 5749 5746 5743 5741 5738 5736 5734 5732 5730 5727 5724 5720
5848 5847 5846 5844 5842 5839 5838 5836 5834 5832 5829 5827 5824 5821 5819 5815 5811 5807 5804 5800 5796 5793 5790 5786 5782 5778 5775 5772 5768 5765 5762 5759 5756 5753 5751 5748 5745 5743 5740 5737 5735 5732 5730 5728 5726 5723 5720 5717 5713
5846 5845 5842 5841 5839 5836 5833 5835 5831 5829 5826 5824 5821 5818 5814 5811 5807 5803 5799 5795 5792 5789 5785 5781 5777 5774 5770 5767 5763 5760 5757 5754 5751 5748 5745 5743 5740 5737 5735 5732 5729 5727 5725 5723 5720 5717 5714 5710 5707
5842 5841 5840 5838 5836 5833 5831 5833 5827 5825 5823 5820 5817 5814 5810 5807 5803 5799 5795 5791 5788 5784 5780 5776 5772 5769 5765 5762 5758 5755 5752 5750 5747 5743 5741 5738 5735 5732 5729 5727 5724 5722 5720 5717 5714 5711 5708 5704 5701